K1CSF Weather Reports


Display with metric or nautical units.
time (UTC)temp
F
wind
direction
speed
MPH
gust
MPH
rain 1hr
in
rain 24hr
in
rain mn
in
humidity
%
barometer
mb
20260504081548 41 171 1.0 3.0 0.00 0.01 0.00 73 1009.1
20260504044529 40 193 2.0 3.0 0.00 0.01 0.00 56 1009.7
20260504043025 41 293 1.0 3.0 0.00 0.01 0.00 54 1009.8
20260504041538 42 317 1.0 3.0 0.00 0.01 0.00 53 1009.9
20260504040023 42 338 2.0 7.0 0.00 0.01 0.00 53 1009.8
20260504034522 41 360 2.0 4.0 0.00 0.01 0.01 54 1009.9
20260504033020 41 315 1.0 3.0 0.00 0.01 0.01 56 1009.8
20260504031520 41 28 1.0 3.0 0.00 0.01 0.01 56 1009.8
20260504030020 40 26 1.0 3.0 0.00 0.01 0.01 59 1010.0
20260504024518 39 24 1.0 4.0 0.00 0.01 0.01 60 1010.2
20260504023018 40 19 1.0 3.0 0.00 0.01 0.01 59 1010.2
20260504021516 40 19 1.0 3.0 0.00 0.01 0.01 58 1010.2
20260504020031 41 17 1.0 4.0 0.00 0.01 0.01 56 1010.1
20260504014520 42 355 1.0 4.0 0.00 0.01 0.01 55 1010.2
20260504013015 41 355 1.0 2.0 0.00 0.01 0.01 56 1010.2
20260504011515 41 319 1.0 2.0 0.00 0.01 0.01 56 1010.1
20260504010014 41 319 1.0 2.0 0.00 0.01 0.01 57 1009.9
20260504004515 41 319 1.0 2.0 0.00 0.01 0.01 56 1009.9
20260504003013 42 319 0.0 3.0 0.00 0.01 0.01 56 1009.8
20260504001522 42 319 1.0 3.0 0.00 0.01 0.01 56 1009.7
20260504000013 43 255 0.0 1.0 0.00 0.01 0.01 55 1009.7
20260503234512 44 255 0.0 3.0 0.00 0.02 0.01 54 1009.7
20260503233017 44 254 1.0 2.0 0.00 0.02 0.01 52 1009.5
20260503231511 45 259 1.0 6.0 0.00 0.02 0.01 51 1009.6
20260503230028 45 279 4.0 13.0 0.00 0.02 0.01 49 1009.7
20260503224509 46 297 2.0 9.0 0.00 0.02 0.01 50 1009.7
20260503223008 45 325 5.0 14.0 0.00 0.02 0.01 50 1009.6
20260503221508 45 332 5.0 12.0 0.00 0.02 0.01 49 1009.6
20260503220008 45 336 6.0 13.0 0.00 0.02 0.01 49 1009.7
20260503214517 46 321 6.0 12.0 0.00 0.02 0.01 49 1009.7
20260503213004 45 286 6.0 12.0 0.00 0.02 0.01 52 1009.7
20260503211503 44 323 5.0 13.0 0.00 0.02 0.01 52 1009.6
20260503210003 44 306 6.0 16.0 0.00 0.02 0.01 54 1009.7
20260503204501 44 5 8.0 15.0 0.00 0.02 0.01 54 1009.5
20260503203003 43 295 7.0 16.0 0.00 0.02 0.01 56 1009.7
20260503201601 43 264 7.0 15.0 0.00 0.02 0.01 56 1009.7
20260503200100 43 321 8.0 17.0 0.00 0.02 0.01 56 1009.8
20260503194609 44 355 5.0 12.0 0.00 0.02 0.01 54 1009.7
20260503193115 43 316 7.0 14.0 0.00 0.02 0.01 56 1009.9
20260503191611 43 344 7.0 17.0 0.00 0.02 0.01 56 1009.9
20260503190054 44 318 9.0 15.0 0.00 0.02 0.01 55 1010.1
20260503184553 42 348 7.0 15.0 0.00 0.02 0.01 56 1010.2
20260503183053 42 335 9.0 23.0 0.00 0.02 0.01 58 1010.3
20260503181553 44 309 8.0 18.0 0.00 0.02 0.01 53 1010.2
20260503180057 44 319 8.0 13.0 0.00 0.02 0.01 58 1010.2
20260503174553 42 350 7.0 20.0 0.00 0.02 0.01 62 1010.4
20260503173048 42 244 11.0 19.0 0.00 0.02 0.01 62 1010.4
20260503171549 44 5 5.0 17.0 0.00 0.02 0.01 56 1010.3